Pittsburg, KS

10:45 AM CDT on May 25, 2017 (GMT -0500)
Atkinson Municipal

Weather History for KPTS - April, 2013

Change the Weather History Date:

Thursday, April 25, 2013

  Actual Average (KJLN) Record (KJLN)
Temperature  
Mean Temperature 52 °F -  
Max Temperature 66 °F 71 °F 87 °F (1949)
Min Temperature 37 °F 49 °F 31 °F (1976)
Degree Days  
Heating Degree Days 14    
Growing Degree Days 2 (Base 50)    
Moisture  
Dew Point 36 °F    
Average Humidity 55    
Maximum Humidity 87    
Minimum Humidity 33    
Precipitation  
Precipitation 0.00 in - - ()
Sea Level Pressure  
Sea Level Pressure 30.27 in    
Wind  
Wind Speed 6 mph (SSW)    
Max Wind Speed 13 mph    
Max Gust Speed 20 mph    
Visibility 10 miles    
Events      
Averages and records for this station are not official NWS values.
T = Trace of Precipitation, MM = Missing Value Source: NWS Daily Summary

Daily Weather History Graph

Daily Weather History Graph

Search for Another Location

Airport or City:

Trip Planner

Search our weather history database for the weather conditions in past years. The results will help you decide how hot, cold, wet, or windy it might be!

Date:

Astronomy

Apr. 25, 2013 Rise Set
Actual Time 6:30 AM CDT 8:03 PM CDT
Civil Twilight 6:03 AM CDT 8:31 PM CDT
Nautical Twilight 5:29 AM CDT 9:04 PM CDT
Astronomical Twilight 4:54 AM CDT 9:39 PM CDT
Moon 8:17 PM CDT 6:14 AM CDT
Length of Visible Light 14h 28m
Length of Day
13h 32m
Full, 100% of the Moon is Illuminated
Apr 25
Full
Apr 25
Full
May 2
Last Quarter
May 9
New
May 17
First Quarter

Hourly Weather History & Observations

Time (CDT) Temp. Windchill Dew Point Humidity Pressure Visibility Wind Dir Wind Speed Gust Speed Precip Events Conditions
12:15 AM 43.0 °F 38.8 °F 31.8 °F 65% 30.28 in 10.0 mi SSW 6.9 mph - N/A   Clear
12:35 AM 42.4 °F 38.1 °F 32.0 °F 67% 30.28 in 10.0 mi SSW 6.9 mph - N/A   Clear
12:55 AM 41.7 °F 38.0 °F 32.5 °F 70% 30.28 in 10.0 mi SSW 5.8 mph - N/A   Clear
1:15 AM 41.4 °F 37.6 °F 32.7 °F 71% 30.28 in 10.0 mi SSW 5.8 mph - N/A   Clear
1:35 AM 40.8 °F 36.2 °F 32.2 °F 71% 30.27 in 10.0 mi SSW 6.9 mph - N/A   Clear
1:55 AM 41.2 °F 37.3 °F 32.0 °F 70% 30.27 in 10.0 mi SSW 5.8 mph - N/A   Clear
2:15 AM 41.2 °F 37.3 °F 32.0 °F 70% 30.27 in 10.0 mi SSW 5.8 mph - N/A   Clear
2:35 AM 40.6 °F 36.7 °F 32.0 °F 71% 30.27 in 10.0 mi SSW 5.8 mph - N/A   Clear
2:55 AM 40.5 °F 37.3 °F 32.0 °F 72% 30.27 in 10.0 mi SW 4.6 mph - N/A   Clear
3:15 AM 41.0 °F 38.0 °F 32.0 °F 70% 30.28 in 10.0 mi WSW 4.6 mph - N/A   Clear
3:35 AM 40.8 °F 37.8 °F 31.8 °F 70% 30.29 in 10.0 mi WSW 4.6 mph - N/A   Clear
3:55 AM 40.8 °F 37.8 °F 31.8 °F 70% 30.29 in 10.0 mi WSW 4.6 mph - N/A   Clear
4:15 AM 40.5 °F 38.4 °F 32.7 °F 74% 30.29 in 10.0 mi SW 3.5 mph - N/A   Clear
4:35 AM 40.5 °F 38.4 °F 32.9 °F 74% 30.29 in 10.0 mi WSW 3.5 mph - N/A   Clear
4:55 AM 40.3 °F 37.1 °F 33.1 °F 75% 30.29 in 10.0 mi SW 4.6 mph - N/A   Clear
5:15 AM 39.4 °F 36.1 °F 32.7 °F 77% 30.29 in 10.0 mi WSW 4.6 mph - N/A   Clear
5:35 AM 38.7 °F 36.3 °F 32.5 °F 79% 30.30 in 10.0 mi SW 3.5 mph - N/A   Clear
5:55 AM 37.9 °F 34.4 °F 32.4 °F 80% 30.30 in 10.0 mi SW 4.6 mph - N/A   Clear
6:15 AM 37.9 °F 34.4 °F 32.5 °F 81% 30.30 in 10.0 mi SW 4.6 mph - N/A   Clear
6:35 AM 37.9 °F 34.4 °F 32.9 °F 82% 30.30 in 10.0 mi SSW 4.6 mph - N/A   Clear
6:55 AM 37.9 °F - 32.5 °F 81% 30.31 in 10.0 mi Calm Calm - N/A   Clear
7:15 AM 37.9 °F - 34.2 °F 86% 30.33 in 10.0 mi Calm Calm - N/A   Clear
7:35 AM 38.5 °F - 35.1 °F 87% 30.33 in 10.0 mi Calm Calm - N/A   Clear
7:55 AM 41.0 °F - 33.3 °F 74% 30.34 in 10.0 mi Calm Calm - N/A   Clear
8:15 AM 42.8 °F 40.1 °F 32.9 °F 68% 30.34 in 10.0 mi WSW 4.6 mph - N/A   Clear
8:35 AM 45.0 °F 41.8 °F 33.1 °F 63% 30.35 in 10.0 mi WSW 5.8 mph - N/A   Clear
8:55 AM 48.4 °F - 35.1 °F 60% 30.35 in 10.0 mi WSW 6.9 mph - N/A   Clear
9:15 AM 50.9 °F - 35.4 °F 55% 30.35 in 10.0 mi West 8.1 mph - N/A   Clear
9:35 AM 50.9 °F - 34.9 °F 54% 30.35 in 10.0 mi West 8.1 mph - N/A   Clear
9:55 AM 51.1 °F - 34.9 °F 54% 30.34 in 10.0 mi West 8.1 mph - N/A   Clear
10:15 AM 53.4 °F - 36.1 °F 52% 30.35 in 10.0 mi West 6.9 mph - N/A   Clear
10:35 AM 55.8 °F - 38.5 °F 52% 30.35 in 10.0 mi SW 8.1 mph - N/A   Clear
10:55 AM 55.8 °F - 36.9 °F 49% 30.35 in 10.0 mi West 9.2 mph - N/A   Clear
11:15 AM 55.8 °F - 36.9 °F 49% 30.35 in 10.0 mi West 9.2 mph - N/A   Clear
11:35 AM 57.6 °F - 38.5 °F 49% 30.35 in 10.0 mi West 8.1 mph - N/A   Clear
11:55 AM 58.3 °F - 38.3 °F 47% 30.35 in 10.0 mi West 6.9 mph - N/A   Clear
12:15 PM 59.4 °F - 37.8 °F 45% 30.34 in 10.0 mi West 5.8 mph - N/A   Clear
12:35 PM 60.8 °F - 38.3 °F 43% 30.33 in 10.0 mi SW 5.8 mph - N/A   Clear
12:55 PM 60.8 °F - 37.6 °F 42% 30.32 in 10.0 mi West 4.6 mph - N/A   Clear
1:15 PM 61.3 °F - 37.0 °F 40% 30.32 in 10.0 mi WSW 9.2 mph - N/A   Clear
1:35 PM 62.1 °F - 38.3 °F 41% 30.31 in 10.0 mi SSW 4.6 mph - N/A   Clear
1:55 PM 63.0 °F - 37.9 °F 40% 30.30 in 10.0 mi SSW 8.1 mph - N/A   Clear
2:15 PM 63.5 °F - 36.9 °F 37% 30.29 in 10.0 mi South 6.9 mph - N/A   Clear
2:35 PM 64.4 °F - 36.9 °F 36% 30.29 in 10.0 mi SSW 9.2 mph - N/A   Clear
2:55 PM 64.4 °F - 37.2 °F 37% 30.29 in 10.0 mi SSW 3.5 mph - N/A   Clear
3:15 PM 64.9 °F - 37.4 °F 36% 30.28 in 10.0 mi SSW 8.1 mph - N/A   Clear
3:35 PM 65.7 °F - 39.9 °F 39% 30.27 in 10.0 mi South 6.9 mph - N/A   Clear
3:55 PM 65.8 °F - 37.8 °F 36% 30.27 in 10.0 mi SSW 9.2 mph - N/A   Clear
4:15 PM 66.0 °F - 36.0 °F 33% 30.25 in 10.0 mi SSW 6.9 mph - N/A   Clear
4:35 PM 65.8 °F - 36.1 °F 33% 30.25 in 10.0 mi South 10.4 mph - N/A   Clear
4:55 PM 65.8 °F - 36.3 °F 34% 30.24 in 10.0 mi South 11.5 mph 16.1 mph N/A   Clear
5:15 PM 65.3 °F - 35.6 °F 33% 30.23 in 10.0 mi South 9.2 mph - N/A   Clear
5:35 PM 65.3 °F - 37.6 °F 36% 30.23 in 10.0 mi SSW 10.4 mph - N/A   Clear
5:55 PM 65.8 °F - 37.0 °F 35% 30.23 in 10.0 mi SSW 5.8 mph - N/A   Clear
6:15 PM 65.5 °F - 37.9 °F 36% 30.22 in 10.0 mi SSW 6.9 mph - N/A   Clear
6:35 PM 63.9 °F - 37.6 °F 38% 30.21 in 10.0 mi SW 4.6 mph - N/A   Clear
6:55 PM 63.5 °F - 39.7 °F 42% 30.21 in 10.0 mi SSW 4.6 mph - N/A   Clear
7:15 PM 62.4 °F - 42.1 °F 47% 30.21 in 10.0 mi SSW 3.5 mph - N/A   Clear
7:35 PM 61.9 °F - 41.2 °F 47% 30.22 in 10.0 mi Calm Calm - N/A   Clear
7:55 PM 61.0 °F - 41.5 °F 49% 30.20 in 10.0 mi ESE 3.5 mph - N/A   Clear
8:15 PM 60.8 °F - 42.4 °F 51% 30.19 in 10.0 mi SE 3.5 mph - N/A   Clear
8:35 PM 59.4 °F - 43.2 °F 55% 30.19 in 10.0 mi ESE 3.5 mph - N/A   Clear
8:55 PM 59.7 °F - 40.3 °F 49% 30.19 in 10.0 mi Calm Calm - N/A   Clear
9:15 PM 60.4 °F - 40.3 °F 47% 30.19 in 10.0 mi SE 5.8 mph - N/A   Clear
9:35 PM 60.8 °F - 39.4 °F 45% 30.19 in 10.0 mi SSE 6.9 mph - N/A   Clear
9:55 PM 60.8 °F - 39.6 °F 46% 30.20 in 10.0 mi SSE 5.8 mph - N/A   Clear
10:15 PM 60.8 °F - 38.7 °F 44% 30.19 in 10.0 mi SSE 8.1 mph - N/A   Clear
10:35 PM 60.8 °F - 38.7 °F 44% 30.19 in 10.0 mi South 11.5 mph - N/A   Scattered Clouds
10:55 PM 60.8 °F - 38.8 °F 44% 30.18 in 10.0 mi South 5.8 mph - N/A   Scattered Clouds
11:15 PM 60.8 °F - 38.8 °F 44% 30.16 in 10.0 mi SSE 11.5 mph - N/A   Clear
11:35 PM 60.8 °F - 37.4 °F 42% 30.14 in 10.0 mi South 11.5 mph 18.4 mph N/A   Clear
11:55 PM 60.8 °F - 35.4 °F 39% 30.13 in 10.0 mi South 12.7 mph 19.6 mph N/A   Clear